FW7161 Weather Reports


Display with metric or nautical units.
time (UTC)temp
F
wind
direction
speed
MPH
gust
MPH
rain 1hr
in
rain 24hr
in
rain mn
in
humidity
%
barometer
mb
20260510154008 50 123 0.0 0.0 0.00 0.08 0.08 81 1030.5
20260510152504 47 120 0.0 0.0 0.00 0.08 0.08 90 1030.6
20260510151000 46 228 0.0 0.0 0.00 0.08 0.08 93 1030.6
20260510145454 45 229 0.0 0.0 0.00 0.08 0.08 95 1030.6
20260510143948 44 354 0.0 0.0 0.00 0.08 0.08 96 1030.8
20260510142444 44 347 0.0 0.0 0.00 0.08 0.08 96 1030.4
20260510140941 44 16 0.0 0.0 0.00 0.08 0.08 97 1030.3
20260510135437 43 36 0.0 0.0 0.00 0.08 0.08 97 1030.3
20260510133934 44 49 0.0 0.0 0.00 0.08 0.08 97 1030.4
20260510132429 43 359 0.0 0.0 0.00 0.08 0.08 97 1030.3
20260510130925 43 20 0.0 0.0 0.00 0.08 0.08 97 1029.7
20260510125421 43 51 0.0 0.0 0.00 0.08 0.08 97 1029.8
20260510123917 43 47 0.0 0.0 0.00 0.08 0.08 97 1029.3
20260510122416 42 19 0.0 0.0 0.00 0.08 0.08 97 1029.6
20260510120913 42 338 0.0 0.0 0.00 0.08 0.08 97 1029.4
20260510115414 42 343 0.0 0.0 0.00 0.08 0.08 97 1028.7
20260510113914 43 55 0.0 0.0 0.00 0.08 0.08 96 1028.7
20260510112410 43 351 0.0 0.0 0.00 0.08 0.08 96 1029.2
20260510110909 43 24 0.0 0.0 0.00 0.08 0.08 96 1029.1
20260510105408 43 357 0.0 0.0 0.00 0.08 0.08 96 1029.2
20260510103903 42 334 0.0 0.0 0.00 0.08 0.08 96 1029.3
20260510102404 43 343 0.0 0.0 0.00 0.08 0.08 96 1028.9
20260510100902 43 356 0.0 0.0 0.00 0.08 0.08 95 1029.1
20260510095356 43 33 0.0 0.0 0.00 0.08 0.08 95 1028.9
20260510093853 43 333 0.0 0.0 0.05 0.08 0.08 94 1028.9
20260510092348 43 9 0.0 0.0 0.17 0.06 0.06 94 1028.5
20260510090849 43 345 0.0 0.0 0.07 0.03 0.03 93 1028.9
20260510085348 43 356 0.0 0.0 0.00 0.02 0.02 93 1028.2
20260510083843 43 349 0.0 0.0 0.00 0.02 0.02 93 1028.1
20260510082339 43 324 0.0 0.0 0.00 0.02 0.02 93 1028.0
20260510080836 43 349 1.0 3.0 0.00 0.02 0.02 93 1028.2
20260510075331 43 353 0.0 0.0 0.00 0.02 0.02 94 1028.1
20260510073827 43 357 1.0 2.0 0.00 0.02 0.02 94 1028.3
20260510072322 43 6 0.0 0.0 0.00 0.02 0.02 94 1028.1
20260510070820 44 45 0.0 0.0 0.00 0.02 0.02 94 1028.0
20260510065318 44 1 1.0 5.0 0.00 0.02 0.02 93 1027.8
20260510063814 44 2 2.0 5.0 0.05 0.02 0.02 92 1027.7
20260510062309 44 353 4.0 6.0 0.00 0.00 0.00 90 1028.3
20260510060809 45 349 5.0 6.0 0.00 0.00 0.00 87 1028.1
20260510055307 45 349 3.0 7.0 0.00 0.00 0.00 86 1027.5
20260510053803 45 0 4.0 5.0 0.00 0.00 0.00 86 1027.1
20260510052306 45 13 1.0 5.0 0.00 0.00 0.00 85 1026.9
20260510050759 45 15 4.0 5.0 0.00 0.00 0.00 85 1026.6
20260510045255 46 353 10.0 11.0 0.00 0.00 0.00 83 1026.4
20260510043751 46 8 5.0 7.0 0.00 0.00 0.00 80 1026.5
20260510042247 47 357 7.0 8.0 0.00 0.00 0.00 78 1025.9
20260510040744 46 353 9.0 13.0 0.00 0.00 0.00 77 1025.8
20260510035244 47 15 6.0 8.0 0.00 0.00 0.00 77 1025.5
20260510033740 48 39 7.0 9.0 0.00 0.00 0.00 73 1024.6
20260510032236 50 332 5.0 8.0 0.00 0.00 0.00 69 1024.4
20260510030732 52 343 5.0 7.0 0.00 0.00 0.00 64 1023.9
20260510025231 57 340 7.0 15.0 0.00 0.00 0.00 50 1023.0
20260510023731 54 311 0.0 0.0 0.00 0.00 0.00 51 1021.6
20260510022231 55 307 0.0 0.0 0.00 0.00 0.00 48 1021.1
20260510020730 57 305 0.0 0.0 0.00 0.00 0.00 43 1020.4
20260510015229 59 317 0.0 0.0 0.00 0.00 0.00 42 1020.5
20260510013729 59 335 0.0 0.0 0.00 0.00 0.00 38 1019.9
20260510012226 59 62 0.0 0.0 0.00 0.00 0.00 43 1020.2
20260510010724 60 2 0.0 0.0 0.00 0.00 0.00 41 1020.3
20260510005220 62 346 0.0 0.0 0.00 0.00 0.00 37 1020.3
20260510003719 63 9 0.0 0.0 0.00 0.00 0.00 36 1019.9
20260510002217 64 337 0.0 0.0 0.00 0.00 0.00 31 1019.2
20260510000713 64 303 0.0 0.0 0.00 0.00 0.00 29 1019.3
20260509235210 63 32 3.0 5.0 0.00 0.00 0.00 33 1019.2
20260509233707 63 83 2.0 3.0 0.00 0.00 0.00 32 1019.7
20260509232203 64 14 1.0 2.0 0.00 0.00 0.00 31 1019.7
20260509230700 65 21 3.0 7.0 0.00 0.00 0.00 30 1019.8
20260509225200 64 355 1.0 2.0 0.00 0.00 0.00 35 1019.9
20260509223656 64 72 5.0 6.0 0.00 0.00 0.00 34 1019.3
20260509222151 64 64 0.0 1.0 0.00 0.00 0.00 32 1019.6
20260509220651 65 45 0.0 0.0 0.00 0.00 0.00 30 1018.8
20260509215146 65 68 0.0 0.0 0.00 0.00 0.00 30 1019.2
20260509213643 66 58 0.0 0.0 0.00 0.00 0.00 30 1019.3
20260509212138 67 84 1.0 3.0 0.00 0.00 0.00 28 1018.8
20260509210634 69 247 0.0 0.0 0.00 0.00 0.00 22 1018.8
20260509205132 70 63 1.0 2.0 0.00 0.00 0.00 23 1019.3
20260509203632 72 47 0.0 0.0 0.00 0.00 0.00 23 1019.2
20260509202132 69 24 0.0 0.0 0.00 0.00 0.00 24 1019.3
20260509200632 70 18 2.0 3.0 0.00 0.00 0.00 24 1019.6
20260509195131 71 63 4.0 7.0 0.00 0.00 0.00 22 1019.4
20260509193629 69 354 0.0 0.0 0.00 0.00 0.00 24 1019.6
20260509192129 72 353 2.0 5.0 0.00 0.00 0.00 21 1019.4
20260509190628 70 318 0.0 0.0 0.00 0.00 0.00 24 1019.6
20260509185125 70 72 0.0 0.0 0.00 0.00 0.00 26 1019.7
20260509183622 70 11 0.0 1.0 0.00 0.00 0.00 21 1019.9
20260509182116 70 329 3.0 5.0 0.00 0.00 0.00 25 1019.9
20260509180614 70 332 0.0 0.0 0.00 0.00 0.00 22 1020.0
20260509175109 69 11 5.0 8.0 0.00 0.00 0.00 21 1019.9
20260509173607 69 317 7.0 8.0 0.00 0.00 0.00 22 1020.4
20260509172102 68 353 5.0 7.0 0.00 0.00 0.00 23 1020.5
20260509170556 68 354 3.0 6.0 0.00 0.00 0.00 22 1020.3
20260509165052 69 305 5.0 9.0 0.00 0.00 0.00 24 1020.2
20260509163548 67 290 6.0 7.0 0.00 0.00 0.00 24 1020.0
20260509162047 67 305 4.0 6.0 0.00 0.00 0.00 24 1020.2
20260509160546 68 332 5.0 6.0 0.00 0.00 0.00 23 1020.5
20260509155046 66 325 3.0 8.0 0.00 0.00 0.00 24 1020.3